TimeCDT,TemperatureF,Dew PointF,Humidity,Sea Level PressureIn,VisibilityMPH,Wind Direction,Wind SpeedMPH,Gust SpeedMPH,PrecipitationIn,Events,Conditions,WindDirDegrees,DateUTC
12:15 AM,73.4,57.2,57,29.71,10.0,South,18.4,24.2,N/A,,Unknown,170,2013-09-28 05:15:00
12:35 AM,73.4,57.2,57,29.70,10.0,South,16.1,24.2,N/A,,Unknown,170,2013-09-28 05:35:00
12:55 AM,73.4,57.2,57,29.68,10.0,South,16.1,26.5,N/A,,Unknown,170,2013-09-28 05:55:00
1:15 AM,73.4,57.2,57,29.68,10.0,South,19.6,25.3,N/A,,Unknown,180,2013-09-28 06:15:00
1:35 AM,73.4,57.2,57,29.67,10.0,South,17.3,24.2,N/A,,Unknown,170,2013-09-28 06:35:00
1:55 AM,73.4,57.2,57,29.66,10.0,South,17.3,25.3,N/A,,Unknown,170,2013-09-28 06:55:00
2:15 AM,73.4,57.2,57,29.66,10.0,South,20.7,29.9,N/A,,Unknown,170,2013-09-28 07:15:00
2:35 AM,66.2,55.4,68,29.71,10.0,West,13.8,21.9,N/A,Rain,Heavy Rain,270,2013-09-28 07:35:00
2:55 AM,60.8,55.4,82,29.70,10.0,WNW,6.9,-,N/A,Rain,Light Rain,290,2013-09-28 07:55:00
3:15 AM,59.0,55.4,88,29.70,10.0,WNW,3.5,-,0.02,Rain,Light Rain,300,2013-09-28 08:15:00
3:35 AM,59.0,55.4,88,29.70,10.0,WNW,3.5,-,0.02,Rain,Light Rain,290,2013-09-28 08:35:00
3:55 AM,57.2,55.4,94,29.71,5.0,West,4.6,-,0.05,Rain,Rain,280,2013-09-28 08:55:00
4:15 AM,57.2,55.4,94,29.70,7.0,WNW,4.6,-,0.04,Rain,Rain,290,2013-09-28 09:15:00
4:35 AM,57.2,55.4,94,29.71,10.0,Calm,Calm,-,0.04,,Unknown,0,2013-09-28 09:35:00
4:55 AM,57.2,55.4,94,29.71,10.0,West,3.5,-,0.04,,Light Drizzle,280,2013-09-28 09:55:00
5:15 AM,55.4,53.6,94,29.73,10.0,West,9.2,-,0.01,,Light Drizzle,280,2013-09-28 10:15:00
5:35 AM,55.4,51.8,88,29.74,10.0,WNW,10.4,-,0.01,,Drizzle,290,2013-09-28 10:35:00
5:55 AM,53.6,51.8,94,29.75,10.0,WNW,9.2,-,0.01,,Drizzle,290,2013-09-28 10:55:00
6:15 AM,53.6,51.8,94,29.73,7.0,NW,5.8,-,0.02,Rain,Rain,310,2013-09-28 11:15:00
6:35 AM,53.6,51.8,94,29.70,10.0,North,4.6,-,0.02,Rain,Light Rain,360,2013-09-28 11:35:00
6:55 AM,53.6,51.8,94,29.75,10.0,WNW,9.2,-,0.02,,Unknown,300,2013-09-28 11:55:00
7:15 AM,53.6,51.8,94,29.77,10.0,WNW,13.8,-,N/A,,Unknown,300,2013-09-28 12:15:00
7:35 AM,53.6,50.0,88,29.79,10.0,WNW,12.7,18.4,N/A,,Unknown,290,2013-09-28 12:35:00
7:55 AM,53.6,50.0,88,29.79,7.0,WNW,11.5,19.6,N/A,,Unknown,300,2013-09-28 12:55:00
8:15 AM,53.6,50.0,88,29.80,3.0,WNW,9.2,16.1,N/A,,Drizzle,300,2013-09-28 13:15:00
8:35 AM,51.8,50.0,94,29.81,10.0,WNW,15.0,20.7,N/A,,Unknown,300,2013-09-28 13:35:00
8:55 AM,51.8,48.2,88,29.83,7.0,NW,15.0,-,N/A,Rain,Light Rain,310,2013-09-28 13:55:00
9:15 AM,51.8,48.2,88,29.85,5.0,WNW,9.2,20.7,N/A,,Mist,300,2013-09-28 14:15:00
9:35 AM,51.8,48.2,88,29.86,7.0,WNW,11.5,21.9,N/A,,Unknown,300,2013-09-28 14:35:00
9:55 AM,51.8,48.2,88,29.87,10.0,WNW,15.0,-,N/A,,Unknown,300,2013-09-28 14:55:00
10:15 AM,51.8,46.4,82,29.87,10.0,NW,12.7,19.6,N/A,,Unknown,310,2013-09-28 15:15:00
10:35 AM,53.6,46.4,77,29.87,10.0,NW,11.5,18.4,N/A,,Unknown,310,2013-09-28 15:35:00
10:55 AM,55.4,48.2,77,29.88,10.0,WNW,13.8,18.4,0.01,,Unknown,300,2013-09-28 15:55:00
11:15 AM,55.4,46.4,72,29.90,10.0,WNW,12.7,19.6,N/A,,Unknown,290,2013-09-28 16:15:00
11:35 AM,55.4,46.4,72,29.90,10.0,NW,12.7,19.6,N/A,,Unknown,310,2013-09-28 16:35:00
11:55 AM,55.4,44.6,67,29.91,10.0,WNW,15.0,18.4,N/A,,Unknown,300,2013-09-28 16:55:00
12:15 PM,57.2,46.4,67,29.92,10.0,NW,11.5,-,N/A,,Unknown,310,2013-09-28 17:15:00
12:35 PM,57.2,44.6,63,29.92,10.0,WNW,16.1,-,N/A,,Unknown,300,2013-09-28 17:35:00
12:55 PM,57.2,44.6,63,29.92,10.0,WNW,13.8,20.7,N/A,,Unknown,300,2013-09-28 17:55:00
1:15 PM,60.8,44.6,55,29.92,10.0,WNW,15.0,18.4,N/A,,Unknown,290,2013-09-28 18:15:00
1:35 PM,60.8,44.6,55,29.92,10.0,WNW,15.0,-,N/A,,Unknown,290,2013-09-28 18:35:00
1:55 PM,62.6,44.6,52,29.93,10.0,West,9.2,17.3,N/A,,Unknown,280,2013-09-28 18:55:00
2:15 PM,60.8,42.8,52,29.92,10.0,NW,12.7,19.6,N/A,,Unknown,310,2013-09-28 19:15:00
2:35 PM,62.6,41.0,45,29.92,10.0,WNW,13.8,20.7,N/A,,Unknown,290,2013-09-28 19:35:00
2:55 PM,62.6,39.2,42,29.92,10.0,NW,13.8,20.7,N/A,,Unknown,320,2013-09-28 19:55:00
3:15 PM,64.4,39.2,40,29.93,10.0,WNW,13.8,19.6,N/A,,Unknown,290,2013-09-28 20:15:00
3:35 PM,64.4,37.4,37,29.93,10.0,WNW,13.8,20.7,N/A,,Unknown,290,2013-09-28 20:35:00
3:55 PM,64.4,37.4,37,29.93,10.0,WNW,16.1,-,N/A,,Unknown,290,2013-09-28 20:55:00
4:15 PM,64.4,39.2,40,29.94,10.0,WNW,11.5,23.0,N/A,,Unknown,300,2013-09-28 21:15:00
4:35 PM,64.4,37.4,37,29.93,10.0,WNW,11.5,19.6,N/A,,Unknown,290,2013-09-28 21:35:00
4:55 PM,64.4,37.4,37,29.94,10.0,WNW,9.2,18.4,N/A,,Unknown,300,2013-09-28 21:55:00
5:15 PM,64.4,37.4,37,29.95,10.0,West,8.1,17.3,N/A,,Unknown,270,2013-09-28 22:15:00
5:35 PM,64.4,35.6,34,29.95,10.0,WNW,9.2,18.4,N/A,,Unknown,300,2013-09-28 22:35:00
5:55 PM,64.4,35.6,34,29.96,10.0,NW,9.2,-,N/A,,Unknown,310,2013-09-28 22:55:00
6:15 PM,64.4,37.4,37,29.97,10.0,West,10.4,-,N/A,,Unknown,270,2013-09-28 23:15:00
6:35 PM,62.6,37.4,39,29.98,10.0,West,3.5,-,N/A,,Unknown,270,2013-09-28 23:35:00
6:55 PM,60.8,39.2,45,29.98,10.0,Calm,Calm,-,N/A,,Unknown,0,2013-09-28 23:55:00
7:15 PM,55.4,41.0,58,29.99,10.0,Calm,Calm,-,N/A,,Unknown,0,2013-09-29 00:15:00
7:35 PM,53.6,42.8,67,29.99,10.0,Calm,Calm,-,N/A,,Unknown,0,2013-09-29 00:35:00
7:55 PM,51.8,42.8,71,30.00,7.0,Calm,Calm,-,N/A,,Unknown,0,2013-09-29 00:55:00
8:15 PM,48.2,41.0,76,30.00,10.0,Calm,Calm,-,N/A,,Unknown,0,2013-09-29 01:15:00
8:35 PM,46.4,41.0,81,30.00,10.0,Calm,Calm,-,N/A,,Unknown,0,2013-09-29 01:35:00
8:55 PM,46.4,41.0,81,30.00,10.0,Calm,Calm,-,N/A,,Unknown,0,2013-09-29 01:55:00
9:15 PM,44.6,41.0,87,30.00,10.0,South,3.5,-,N/A,,Unknown,190,2013-09-29 02:15:00
9:35 PM,44.6,39.2,81,30.00,10.0,Calm,Calm,-,N/A,,Unknown,0,2013-09-29 02:35:00
9:55 PM,44.6,41.0,87,30.01,10.0,Calm,Calm,-,N/A,,Unknown,0,2013-09-29 02:55:00
10:15 PM,44.6,41.0,87,30.01,10.0,Calm,Calm,-,N/A,,Unknown,0,2013-09-29 03:15:00
10:35 PM,42.8,39.2,87,30.01,10.0,Calm,Calm,-,N/A,,Unknown,0,2013-09-29 03:35:00
10:55 PM,44.6,39.2,81,30.01,10.0,Calm,Calm,-,N/A,,Unknown,0,2013-09-29 03:55:00
11:15 PM,44.6,39.2,81,30.01,10.0,Calm,Calm,-,N/A,,Unknown,0,2013-09-29 04:15:00
11:35 PM,42.8,39.2,87,30.01,10.0,Calm,Calm,-,N/A,,Unknown,0,2013-09-29 04:35:00
11:55 PM,42.8,39.2,87,30.01,10.0,SSW,3.5,-,N/A,,Unknown,210,2013-09-29 04:55:00